TimeCST,TemperatureF,Dew PointF,Humidity,Sea Level PressureIn,VisibilityMPH,Wind Direction,Wind SpeedMPH,Gust SpeedMPH,PrecipitationIn,Events,Conditions,WindDirDegrees,DateUTC
12:15 AM,40.5,28.2,62,30.02,10.0,West,6.9,-,N/A,,Clear,280,2013-02-11 06:15:00
12:35 AM,39.7,27.7,62,30.03,10.0,West,8.1,-,N/A,,Clear,270,2013-02-11 06:35:00
12:55 AM,38.3,27.0,64,30.03,10.0,West,5.8,-,N/A,,Clear,260,2013-02-11 06:55:00
1:15 AM,37.9,27.3,66,30.02,10.0,West,6.9,-,N/A,,Clear,280,2013-02-11 07:15:00
1:35 AM,37.9,26.6,64,30.03,10.0,West,8.1,-,N/A,,Clear,270,2013-02-11 07:35:00
1:55 AM,37.9,27.1,65,30.04,10.0,West,5.8,-,N/A,,Clear,270,2013-02-11 07:55:00
2:15 AM,37.9,27.5,66,30.04,10.0,West,6.9,-,N/A,,Clear,270,2013-02-11 08:15:00
2:35 AM,37.8,27.5,67,30.04,10.0,WNW,3.5,-,N/A,,Clear,290,2013-02-11 08:35:00
3:15 AM,36.3,27.0,69,30.04,10.0,NW,4.6,-,N/A,,Clear,310,2013-02-11 09:15:00
3:35 AM,35.6,27.0,71,30.05,10.0,West,4.6,-,N/A,,Clear,280,2013-02-11 09:35:00
3:55 AM,35.6,26.4,69,30.05,10.0,WNW,5.8,-,N/A,,Clear,290,2013-02-11 09:55:00
4:15 AM,35.6,27.1,71,30.06,10.0,WNW,3.5,-,N/A,,Clear,300,2013-02-11 10:15:00
4:35 AM,35.6,27.7,73,30.07,10.0,WNW,4.6,-,N/A,,Clear,290,2013-02-11 10:35:00
4:55 AM,35.6,27.7,73,30.08,10.0,West,3.5,-,N/A,,Clear,280,2013-02-11 10:55:00
5:15 AM,35.6,27.7,73,30.09,10.0,NW,6.9,-,N/A,,Clear,320,2013-02-11 11:15:00
5:35 AM,35.6,28.4,75,30.10,10.0,NW,4.6,-,N/A,,Clear,310,2013-02-11 11:35:00
5:55 AM,35.6,28.8,76,30.10,10.0,NW,5.8,-,N/A,,Clear,320,2013-02-11 11:55:00
6:15 AM,33.4,27.1,78,30.11,10.0,WNW,4.6,-,N/A,,Clear,300,2013-02-11 12:15:00
6:35 AM,32.9,26.4,77,30.12,10.0,NW,3.5,-,N/A,,Clear,320,2013-02-11 12:35:00
6:55 AM,32.9,26.6,78,30.13,10.0,Calm,Calm,-,N/A,,Clear,0,2013-02-11 12:55:00
7:15 AM,32.7,26.4,78,30.14,10.0,SW,4.6,-,N/A,,Clear,220,2013-02-11 13:15:00
7:35 AM,31.8,27.0,82,30.15,10.0,WSW,5.8,-,N/A,,Clear,240,2013-02-11 13:35:00
7:55 AM,32.9,28.4,84,30.15,10.0,West,4.6,-,N/A,,Clear,260,2013-02-11 13:55:00
8:15 AM,32.9,27.3,80,30.16,10.0,West,5.8,-,N/A,,Clear,270,2013-02-11 14:15:00
8:35 AM,35.1,27.3,73,30.17,10.0,WNW,6.9,-,N/A,,Clear,290,2013-02-11 14:35:00
8:55 AM,35.6,26.2,69,30.17,10.0,NW,5.8,-,N/A,,Clear,310,2013-02-11 14:55:00
9:15 AM,35.6,25.7,67,30.18,10.0,NW,5.8,-,N/A,,Clear,310,2013-02-11 15:15:00
9:35 AM,37.2,27.0,66,30.19,10.0,NW,6.9,-,N/A,,Clear,320,2013-02-11 15:35:00
9:55 AM,37.9,26.2,63,30.19,10.0,NNW,6.9,-,N/A,,Clear,330,2013-02-11 15:55:00
10:15 AM,37.9,25.3,60,30.20,10.0,NNW,6.9,-,N/A,,Clear,340,2013-02-11 16:15:00
10:35 AM,39.0,26.2,60,30.20,10.0,NNW,6.9,-,N/A,,Clear,340,2013-02-11 16:35:00
10:55 AM,39.9,27.0,60,30.20,10.0,NW,6.9,-,N/A,,Clear,310,2013-02-11 16:55:00
11:15 AM,40.5,27.1,59,30.20,10.0,WNW,4.6,-,N/A,,Clear,290,2013-02-11 17:15:00
11:35 AM,41.0,27.3,58,30.19,10.0,WNW,4.6,-,N/A,,Clear,300,2013-02-11 17:35:00
11:55 AM,41.7,27.5,57,30.19,10.0,WNW,5.8,-,N/A,,Clear,300,2013-02-11 17:55:00
12:15 PM,42.4,28.2,57,30.18,10.0,West,4.6,-,N/A,,Clear,270,2013-02-11 18:15:00
12:35 PM,43.0,28.0,56,30.18,10.0,NW,5.8,-,N/A,,Clear,310,2013-02-11 18:35:00
12:55 PM,43.2,27.1,53,30.17,10.0,Calm,Calm,-,N/A,,Clear,0,2013-02-11 18:55:00
1:15 PM,43.9,27.3,52,30.16,10.0,NW,3.5,-,N/A,,Clear,320,2013-02-11 19:15:00
1:35 PM,44.6,27.9,52,30.15,10.0,NW,5.8,-,N/A,,Clear,320,2013-02-11 19:35:00
1:55 PM,46.0,28.9,51,30.14,10.0,WNW,5.8,-,N/A,,Clear,300,2013-02-11 19:55:00
2:15 PM,46.6,28.8,50,30.14,10.0,Calm,Calm,-,N/A,,Clear,0,2013-02-11 20:15:00
2:35 PM,48.0,28.9,48,30.14,10.0,WNW,3.5,-,N/A,,Clear,300,2013-02-11 20:35:00
2:55 PM,49.1,29.3,46,30.14,10.0,WNW,5.8,-,N/A,,Clear,300,2013-02-11 20:55:00
3:15 PM,49.5,29.5,46,30.13,10.0,NW,5.8,-,N/A,,Clear,320,2013-02-11 21:15:00
3:35 PM,48.9,28.2,45,30.13,10.0,WNW,4.6,-,N/A,,Clear,300,2013-02-11 21:35:00
3:55 PM,50.4,29.1,44,30.12,10.0,Calm,Calm,-,N/A,,Clear,0,2013-02-11 21:55:00
4:55 PM,50.2,28.4,43,30.12,10.0,NNW,3.5,-,N/A,,Clear,330,2013-02-11 22:55:00
5:15 PM,48.7,27.0,43,30.12,10.0,WSW,3.5,-,N/A,,Clear,250,2013-02-11 23:15:00
5:35 PM,48.2,27.7,45,30.12,10.0,Calm,Calm,-,N/A,,Clear,0,2013-02-11 23:35:00
5:55 PM,46.9,27.9,48,30.12,10.0,Calm,Calm,-,N/A,,Clear,0,2013-02-11 23:55:00
6:15 PM,45.0,26.4,48,30.12,10.0,Calm,Calm,-,N/A,,Clear,0,2013-02-12 00:15:00
6:35 PM,43.7,27.5,53,30.12,10.0,Calm,Calm,-,N/A,,Clear,0,2013-02-12 00:35:00
6:55 PM,40.5,29.7,65,30.13,10.0,Calm,Calm,-,N/A,,Clear,0,2013-02-12 00:55:00
7:15 PM,38.7,29.7,70,30.14,10.0,Calm,Calm,-,N/A,,Clear,0,2013-02-12 01:15:00
7:35 PM,37.8,28.9,71,30.13,10.0,Calm,Calm,-,N/A,,Clear,0,2013-02-12 01:35:00
7:55 PM,36.5,30.7,80,30.14,10.0,Calm,Calm,-,N/A,,Clear,0,2013-02-12 01:55:00
8:15 PM,35.6,30.9,83,30.14,10.0,Calm,Calm,-,N/A,,Clear,0,2013-02-12 02:15:00
8:35 PM,34.5,31.1,87,30.14,10.0,Calm,Calm,-,N/A,,Clear,0,2013-02-12 02:35:00
8:55 PM,34.5,30.2,84,30.15,10.0,Calm,Calm,-,N/A,,Clear,0,2013-02-12 02:55:00
9:15 PM,35.1,31.1,85,30.14,10.0,Calm,Calm,-,N/A,,Clear,0,2013-02-12 03:15:00
9:35 PM,33.6,29.8,86,30.15,10.0,Calm,Calm,-,N/A,,Clear,0,2013-02-12 03:35:00
9:55 PM,32.5,31.6,96,30.15,10.0,Calm,Calm,-,N/A,,Clear,0,2013-02-12 03:55:00
10:15 PM,31.6,30.6,96,30.15,10.0,Calm,Calm,-,N/A,,Clear,0,2013-02-12 04:15:00
10:35 PM,32.0,30.7,95,30.15,10.0,Calm,Calm,-,N/A,,Clear,0,2013-02-12 04:35:00
10:55 PM,31.3,31.3,100,30.15,10.0,Calm,Calm,-,N/A,,Clear,0,2013-02-12 04:55:00
11:15 PM,30.7,30.9,100,30.16,10.0,Calm,Calm,-,N/A,,Clear,0,2013-02-12 05:15:00
11:35 PM,30.7,30.9,100,30.16,10.0,Calm,Calm,-,N/A,,Clear,0,2013-02-12 05:35:00
11:55 PM,30.7,30.9,100,30.16,10.0,Calm,Calm,-,N/A,,Clear,0,2013-02-12 05:55:00